"TOA5","AWS1","CR1000","7964","CR1000.Std.14","CPU:AWS1_114.CR1","64363","TBL110"
"TIMESTAMP","RECORD","Wind_spd_WVc(1)","Wind_spd_WVc(2)","Air_Temp_Avg","Humidity_Avg","SW_upper_Wm2_Avg","Rain_Tot","Press_Avg","Issui_Tot","Depth_cm","SR50A_Raw","Quality","Ground_Temp_Avg(1)","Ground_Temp_Avg(2)","SW_lower_Wm2_Avg","Albedo_Avg","SWC_per(1)","SWC_per(2)","Period(1)","Period(2)"
"TS","RN","","","","","","","","","","","","","","","","","","",""
"","","WVc","WVc","Avg","Avg","Avg","Tot","Avg","Tot","Smp","Smp","Smp","Avg","Avg","Avg","Avg","Smp","Smp","Smp","Smp"
"2017-11-12 00:00:00",314125,1.303,286.5,-1.591,89.4,0,0,863.5436,0,12.93,3.06,235,6.314,7.43,0.4171343,0,52.88,60.8,34,35.86
"2017-11-12 00:10:00",314126,1.636,281.6,-1.721,90.7,0,0,863.5809,0,12.96,3.06,238,6.352,7.43,0.2872072,0,52.83,60.8,33.99,35.86
"2017-11-12 00:20:00",314127,1.064,293.5,-1.736,91,0,0,863.4761,0,13.06,3.059,240,6.363,7.43,0.3602524,0,52.88,60.8,34,35.86
"2017-11-12 00:30:00",314128,0.629,204,-1.711,92,0,0,863.5287,0,12.96,3.06,238,6.312,7.423,0.4474714,0,52.88,60.8,34,35.86
"2017-11-12 00:40:00",314129,0.718,221.4,-1.762,92.2,0,0,863.5436,0,12.91,3.061,232,6.305,7.39,0.5233139,0,52.83,60.8,33.99,35.86
"2017-11-12 00:50:00",314130,0.691,253.1,-1.837,91.7,0,0,863.5815,0,12.95,3.061,226,6.28,7.378,0.6750008,0,52.83,60.74,33.99,35.85
"2017-11-12 01:00:00",314131,1.441,293.2,-1.798,87.7,0,0,863.7796,0.5,13.2,3.058,230,6.231,7.355,0.6295019,0,52.83,60.74,33.99,35.85
"2017-11-12 01:10:00",314132,0.522,216.4,-1.803,86.8,0,0,863.7796,0,13.11,3.059,229,6.221,7.346,0.6712124,0,52.88,60.74,34,35.85
"2017-11-12 01:20:00",314133,1.153,224.5,-1.881,87.7,0,0,863.6363,0,13.06,3.06,230,6.227,7.345,0.6825858,0,52.83,60.74,33.99,35.85
"2017-11-12 01:30:00",314134,0.915,266.3,-1.923,87.2,0,0,863.6468,0,12.8,3.063,220,6.266,7.349,0.602959,0,52.83,60.74,33.99,35.85
"2017-11-12 01:40:00",314135,1.033,270.8,-1.964,86.4,0,0,863.7839,0,13.2,3.059,229,6.304,7.352,0.6674306,0,52.83,60.74,33.99,35.85
"2017-11-12 01:50:00",314136,0.948,287,-1.938,84.9,0,0,863.9567,0,13.1,3.06,235,6.283,7.366,0.697773,0,52.83,60.68,33.99,35.83
"2017-11-12 02:00:00",314137,1.22,292,-1.906,82.5,0,0,864.0599,0,13.19,3.059,228,6.307,7.378,0.7053794,0,52.83,60.68,33.99,35.83
"2017-11-12 02:10:00",314138,0.851,287.4,-1.973,81.8,0,0,864.2475,0,12.97,3.061,224,6.276,7.368,0.7281461,0,52.77,60.68,33.98,35.83
"2017-11-12 02:20:00",314139,0.919,290.4,-2.015,83,0,0,864.256,0,13.13,3.061,222,6.218,7.355,0.7698901,0,52.83,60.68,33.99,35.83
"2017-11-12 02:30:00",314140,0.184,103.8,-2.334,85.7,0,0,864.2117,0,12.85,3.066,230,6.223,7.351,0.7547571,0,52.83,60.68,33.99,35.83
"2017-11-12 02:40:00",314141,0.471,216.4,-2.541,87.3,0,0,864.119,0,12.97,3.064,237,6.258,7.377,0.9861431,0,52.77,60.68,33.98,35.83
"2017-11-12 02:50:00",314142,0.703,218.1,-2.463,86.7,0,0,864.0494,0,13.07,3.063,239,6.273,7.395,1.069606,0,52.77,60.68,33.98,35.83
"2017-11-12 03:00:00",314143,0.558,220.8,-2.472,86.3,0,0,864.1657,0,12.66,3.067,248,6.258,7.404,0.9975694,0,52.72,60.62,33.96,35.82
"2017-11-12 03:10:00",314144,0.406,204.1,-2.492,85.8,0,0,864.2994,0,12.8,3.066,241,6.21,7.419,1.126582,0,52.72,60.62,33.96,35.82
"2017-11-12 03:20:00",314145,0.329,176.2,-2.609,85,0,0,864.324,0,12.72,3.069,253,6.218,7.428,1.084894,0,52.72,60.62,33.96,35.82
"2017-11-12 03:30:00",314146,0.365,187.4,-2.769,85.8,0,0,864.5413,0,12.25,3.074,252,6.178,7.429,1.103865,0,52.72,60.62,33.96,35.82
"2017-11-12 03:40:00",314147,0.46,210.6,-2.934,87.6,0,0,864.5501,0,11.95,3.077,257,6.187,7.432,1.058356,0,52.72,60.62,33.96,35.82
"2017-11-12 03:50:00",314148,0.864,187.3,-2.926,86.9,0,0,864.3719,0,11.15,3.084,239,6.215,7.432,1.069743,0,52.66,60.62,33.95,35.82
"2017-11-12 04:00:00",314149,0.57,193.6,-2.746,85.5,0,0,864.5505,0,11.55,3.08,240,6.221,7.436,1.073539,0,52.66,60.62,33.95,35.82
"2017-11-12 04:10:00",314150,0.803,173.8,-2.806,84.9,0,0,864.5107,0,11.35,3.083,238,6.221,7.431,0.9445632,0,52.66,60.56,33.95,35.81
"2017-11-12 04:20:00",314151,0.816,205.9,-2.803,85.4,0,0,864.4653,0,10.83,3.088,238,6.181,7.458,0.9521502,0,52.66,60.56,33.95,35.81
"2017-11-12 04:30:00",314152,0.485,218.9,-2.844,86.3,0,0,864.6522,0,10.85,3.088,240,6.14,7.472,0.9483567,0,52.66,60.56,33.95,35.81
"2017-11-12 04:40:00",314153,0.639,214.9,-2.915,85.9,0,0,864.6566,0,10.48,3.091,245,6.139,7.45,0.9711173,0,52.66,60.56,33.95,35.81
"2017-11-12 04:50:00",314154,0.516,232.9,-2.8,84.4,0,0,864.6464,0,10.16,3.093,239,6.118,7.403,1.160789,0,52.66,60.56,33.95,35.81
"2017-11-12 05:00:00",314155,0.775,207.5,-2.762,83.6,0,0,864.6438,0,10.28,3.094,240,6.132,7.4,1.069746,0,52.66,60.56,33.95,35.81
"2017-11-12 05:10:00",314156,0.725,243.5,-2.636,80.4,0,0,864.6498,0,10.36,3.091,240,6.115,7.393,1.134235,0,52.66,60.56,33.95,35.81
"2017-11-12 05:20:00",314157,0.744,223.4,-2.672,80.9,0,0,864.6461,0,10.96,3.085,240,6.06,7.385,1.122854,0,52.66,60.56,33.95,35.81
"2017-11-12 05:30:00",314158,0.934,204.3,-2.571,79.5,0,0,864.5892,0,10.41,3.091,245,6.049,7.38,1.077333,0,52.6,60.5,33.94,35.79
"2017-11-12 05:40:00",314159,1.239,228.2,-2.517,79.41,0,0,864.4986,0,10.56,3.088,239,6.077,7.368,0.9976713,0,52.6,60.5,33.94,35.79
"2017-11-12 05:50:00",314160,0.897,254.5,-2.437,79.34,0,0,864.6146,0,10.41,3.091,237,6.091,7.351,0.8762816,0,52.66,60.5,33.95,35.79
"2017-11-12 06:00:00",314161,0.883,238.9,-2.541,79.67,0,0,864.7559,0,10.31,3.091,238,6.034,7.345,0.8649014,0,52.6,60.5,33.94,35.79
"2017-11-12 06:10:00",314162,0.718,248.4,-2.54,79.86,0,0,864.9203,0,10.68,3.088,238,6.015,7.347,1.024225,0,52.6,60.5,33.94,35.79
"2017-11-12 06:20:00",314163,0.44,260.1,-2.458,77.79,0,0,865.1395,0,10.31,3.09,239,6.034,7.348,1.468056,0,52.6,60.56,33.94,35.81
"2017-11-12 06:30:00",314164,0.467,304.3,-2.262,76.46,0,0,865.2513,0,9.47,3.098,239,6.046,7.348,2.249502,0,52.6,60.5,33.94,35.79
"2017-11-12 06:40:00",314165,0.414,278,-2.547,78.99,0.4760519,0,865.3863,0,9.76,3.096,238,6.036,7.348,2.57953,1.859,52.6,60.5,33.94,35.79
"2017-11-12 06:50:00",314166,0.46,205.1,-2.671,79.97,3.296955,0,865.4053,0,9.66,3.099,242,6.034,7.348,3.232,1.072,52.6,60.5,33.94,35.79
"2017-11-12 07:00:00",314167,0.589,237.6,-2.717,83.1,6.645056,0,865.4094,0,10.21,3.093,245,6.009,7.348,4.036206,0.615,52.6,60.5,33.94,35.79
"2017-11-12 07:10:00",314168,0.733,225.4,-2.531,80.1,9.607594,0,865.5001,0,10.16,3.093,247,5.997,7.348,4.885934,0.51,52.6,60.44,33.94,35.78
"2017-11-12 07:20:00",314169,0.356,149.9,-2.607,81.6,18.97126,0,865.5696,0,9.66,3.098,244,5.945,7.339,11.50167,0.577,52.55,60.5,33.92,35.79
"2017-11-12 07:30:00",314170,0.49,175.5,-2.435,84.2,33.21347,0,865.5001,0,10.46,3.088,250,5.921,7.348,19.38062,0.595,52.55,60.5,33.92,35.79
"2017-11-12 07:40:00",314171,0.315,155.6,-1.911,82.1,33.82329,0,865.6582,0,11.16,3.078,252,5.919,7.348,20.45416,0.619,52.55,60.5,33.92,35.79
"2017-11-12 07:50:00",314172,0.511,153,-1.385,77.68,61.02514,0,865.6751,0,12.07,3.066,251,5.919,7.344,24.53968,0.474,52.55,60.5,33.92,35.79
"2017-11-12 08:00:00",314173,0.478,108.7,-1.035,76.82,80.87375,0,865.8058,0,12.57,3.061,238,5.919,7.325,28.85281,0.433,52.55,60.44,33.92,35.78
"2017-11-12 08:10:00",314174,0.18,205.1,-0.999,76.82,45.70098,0,865.7564,0,12.57,3.06,237,5.919,7.307,26.81953,0.64,52.55,60.44,33.92,35.78
"2017-11-12 08:20:00",314175,0.148,114.3,-0.77,75.61,36.20739,0,865.8523,0,12.93,3.054,238,5.918,7.303,28.77307,0.795,52.55,60.38,33.92,35.77
"2017-11-12 08:30:00",314176,0.1,226.9,-0.831,74.21,52.22266,0,865.8545,0,12.79,3.055,230,5.904,7.267,28.52204,0.586,52.55,60.38,33.92,35.77
"2017-11-12 08:40:00",314177,0.737,157.9,-0.295,74.59,62.03199,0,865.7631,0,12.9,3.053,239,5.896,7.249,28.5738,0.507,52.55,60.38,33.92,35.77
"2017-11-12 08:50:00",314178,0.582,295.3,-0.538,72.19,49.73516,0,865.8199,0,13.04,3.054,254,5.877,7.234,28.83772,0.599,52.55,60.38,33.92,35.77
"2017-11-12 09:00:00",314179,0.882,287.2,-0.656,71.82,46.98684,0,865.8204,0,13.31,3.05,241,5.864,7.219,28.80962,0.621,52.55,60.38,33.92,35.77
"2017-11-12 09:10:00",314180,0.727,276.9,-0.578,72.4,42.63668,0,865.8159,0,13.82,3.045,226,5.834,7.227,29.34957,0.688,52.55,60.38,33.92,35.77
"2017-11-12 09:20:00",314181,0.512,305,-0.387,71.19,44.41235,0,865.8201,0,13.28,3.049,227,5.814,7.261,29.95869,0.675,52.55,60.38,33.92,35.77
"2017-11-12 09:30:00",314182,0.405,311,-0.098,71.43,44.55311,0,865.8201,0,13.39,3.047,227,5.791,7.305,31.00855,0.697,52.55,60.38,33.92,35.77
"2017-11-12 09:40:00",314183,0.408,305.9,-0.054,72.53,48.16723,0,865.8201,0,13.27,3.046,230,5.782,7.319,32.80204,0.687,52.49,60.33,33.91,35.75
"2017-11-12 09:50:00",314184,0.461,296.1,0.22,72.18,46.91645,0,865.8158,0,13.34,3.046,218,5.76,7.308,34.13301,0.728,52.55,60.33,33.92,35.75
"2017-11-12 10:00:00",314185,0.432,26.77,0.621,73.56,55.27793,0,865.8411,0,13.47,3.038,217,5.741,7.322,36.60926,0.679,52.55,60.33,33.92,35.75
"2017-11-12 10:10:00",314186,0.665,97.1,1.204,71.86,49.28408,0,866.0624,0,13.51,3.039,239,5.72,7.32,39.05898,0.793,52.49,60.33,33.91,35.75
"2017-11-12 10:20:00",314187,0.524,344.8,0.894,70.16,52.62711,0,866.073,0,13.23,3.043,230,5.678,7.297,41.77794,0.796,52.49,60.33,33.91,35.75
"2017-11-12 10:30:00",314188,0.551,301.6,0.732,70.2,95.42178,0,866.0709,0,13.4,3.042,225,5.7,7.246,48.52794,0.597,52.49,60.33,33.91,35.75
"2017-11-12 10:40:00",314189,0.711,298.4,0.951,71,117.3402,0,866.0836,0,13.17,3.042,225,5.699,7.225,52.19873,0.544,52.49,60.33,33.91,35.75
"2017-11-12 10:50:00",314190,0.52,294.5,1.141,71.83,110.135,0,866.288,0,13.57,3.036,222,5.699,7.252,55.61923,0.602,52.49,60.33,33.91,35.75
"2017-11-12 11:00:00",314191,0.335,322.1,1.426,69.91,242.2861,0,866.2888,0,13.32,3.04,233,5.698,7.282,65.82368,0.416,52.49,60.27,33.91,35.74
"2017-11-12 11:10:00",314192,0.401,294.2,1.451,71.09,246.8003,0,866.2589,0,13.09,3.04,217,5.677,7.242,71.34242,0.309,52.49,60.33,33.91,35.75
"2017-11-12 11:20:00",314193,0.688,327.5,1.89,70.67,255.6453,0,866.0197,0,-28.67,3.453,201,5.602,7.215,67.51041,0.399,52.49,60.27,33.91,35.74
"2017-11-12 11:30:00",314194,0.5,304.5,2.094,70.08,277.4431,0,865.9831,0,-26.34,3.431,204,5.584,7.193,76.03621,0.292,52.49,60.27,33.91,35.74
"2017-11-12 11:40:00",314195,0.681,8.83,2.549,71.24,460.6524,0,865.9502,0,2.781,3.135,250,5.636,7.176,83.05247,0.192,52.49,60.27,33.91,35.74
"2017-11-12 11:50:00",314196,0.524,338.4,2.788,68.69,322.3496,0,865.91,0,-27.52,3.438,188,5.646,7.143,83.26289,0.29,52.49,60.27,33.91,35.74
"2017-11-12 12:00:00",314197,0.545,311.9,2.794,68.69,675.3242,0,865.9024,0,3.502,3.13,216,5.661,7.113,77.27267,0.114,52.55,60.27,33.92,35.74
"2017-11-12 12:10:00",314198,0.522,308.6,2.607,69.59,740.25,0,865.8663,0,3.093,3.135,214,5.638,7.091,78.7126,0.106,52.49,60.27,33.91,35.74
"2017-11-12 12:20:00",314199,0.418,291.2,2.497,69.69,688.9694,0,865.6346,0,4.491,3.119,239,5.654,7.132,69.51121,0.101,52.49,60.27,33.91,35.74
"2017-11-12 12:30:00",314200,0.407,352,3.059,67.16,684.6047,0,865.4319,0,3.52,3.127,230,5.602,7.092,66.12876,0.097,52.49,60.27,33.91,35.74
"2017-11-12 12:40:00",314201,0.441,286.8,2.981,67.25,632.4734,0,865.3027,0,12.68,3.037,257,5.555,7.054,53.99935,0.086,52.49,60.27,33.91,35.74
"2017-11-12 12:50:00",314202,0.398,325,2.872,68.12,639.5598,0,865.2958,0,2.833,3.135,234,5.557,7.038,44.82792,0.07,52.44,60.27,33.89,35.74
"2017-11-12 13:00:00",314203,0.519,316.5,2.743,67.94,614.5481,0,865.3284,0,12.58,3.04,269,5.558,6.99,39.70884,0.065,52.49,60.27,33.91,35.74
"2017-11-12 13:10:00",314204,0.526,308.2,2.682,68.04,524.0549,0,865.3033,0,3.946,3.124,250,5.497,6.888,38.45396,0.075,52.44,60.27,33.89,35.74
"2017-11-12 13:20:00",314205,0.608,296.1,2.811,67.65,581.4133,0,865.3033,0,-25.4,3.418,336,5.456,6.859,30.60466,0.053,52.49,60.27,33.91,35.74
"2017-11-12 13:30:00",314206,0.365,316.3,2.753,66.93,349.9003,0,865.3902,0,-27.07,3.432,252,5.399,6.886,19.42975,0.077,52.44,60.21,33.89,35.73
"2017-11-12 13:40:00",314207,0.408,309.6,2.897,67.14,488.4683,0,865.5461,0,12.66,3.037,292,5.387,6.94,20.02083,0.041,52.49,60.21,33.91,35.73
"2017-11-12 13:50:00",314208,0.645,325,2.891,66.49,422.4632,0,865.5461,0,13.05,3.032,284,5.395,6.942,13.30053,0.038,52.49,60.21,33.91,35.73
"2017-11-12 14:00:00",314209,0.314,329.5,3.072,66.92,37.50176,0,865.5672,0,12.34,3.04,257,5.428,6.941,8.337934,0.223,52.44,60.21,33.89,35.73
"2017-11-12 14:10:00",314210,0.154,125.7,3.289,67.5,36.46452,0,865.5925,0,12.66,3.034,254,5.454,6.932,7.360567,0.202,52.49,60.21,33.91,35.73
"2017-11-12 14:20:00",314211,0.313,297.8,3.194,68.9,36.71217,0,865.8024,0,12.38,3.04,278,5.462,6.952,6.049853,0.165,52.49,60.21,33.91,35.73
"2017-11-12 14:30:00",314212,0.287,282.5,2.838,69.81,38.86814,0,865.9301,0,12.81,3.037,259,5.468,6.915,5.762372,0.149,52.44,60.21,33.89,35.73
"2017-11-12 14:40:00",314213,0.32,312.6,2.674,70.07,51.34621,0,866.1141,0,12.34,3.041,238,5.517,6.886,7.434087,0.145,52.44,60.21,33.89,35.73
"2017-11-12 14:50:00",314214,0.18,245.4,2.849,69.97,47.84481,0,866.1104,0,12.31,3.042,228,5.501,6.929,6.70714,0.14,52.44,60.21,33.89,35.73
"2017-11-12 15:00:00",314215,0.195,283.9,2.762,69.9,33.56014,0,866.1416,0,11.98,3.045,233,5.48,6.943,4.854323,0.145,52.44,60.15,33.89,35.71
"2017-11-12 15:10:00",314216,0.181,283.1,2.674,70.98,35.56104,0,866.2015,0,12.13,3.044,238,5.5,6.949,5.017329,0.141,52.44,60.21,33.89,35.73
"2017-11-12 15:20:00",314217,0.132,221,2.687,70.92,30.49111,0,866.246,0,12,3.045,233,5.518,6.906,4.278387,0.14,52.44,60.15,33.89,35.71
"2017-11-12 15:30:00",314218,0.108,241.5,2.69,71.01,31.94665,0,866.2608,0,11.93,3.046,234,5.53,6.915,4.612058,0.144,52.44,60.15,33.89,35.71
"2017-11-12 15:40:00",314219,0.242,224.2,2.661,71.83,21.24299,0,866.3766,0,12.02,3.045,237,5.566,6.951,3.089022,0.146,52.44,60.15,33.89,35.71
"2017-11-12 15:50:00",314220,0.015,34.97,2.609,71.81,16.49215,0,866.3974,0,12,3.046,241,5.592,6.985,2.577609,0.156,52.44,60.15,33.89,35.71
"2017-11-12 16:00:00",314221,0.111,300.7,2.527,72.39,15.03423,0,866.4177,0,11.7,3.049,241,5.603,7.021,2.676275,0.178,52.44,60.15,33.89,35.71
"2017-11-12 16:10:00",314222,0.031,127.1,2.509,72.94,14.25992,0,866.4457,0,11.39,3.053,242,5.607,7.025,2.539844,0.178,52.44,60.15,33.89,35.71
"2017-11-12 16:20:00",314223,0.046,222,2.175,74.51,9.066316,0,866.6736,0,11.48,3.054,240,5.608,6.961,1.819598,0.203,52.44,60.21,33.89,35.73
"2017-11-12 16:30:00",314224,0.081,231.2,1.947,75.89,5.885643,0,866.733,0,11.05,3.059,256,5.613,6.913,1.554242,0.273,52.38,60.15,33.88,35.71
"2017-11-12 16:40:00",314225,0.031,234.1,1.697,77.3,1.336753,0,866.8962,0,11.57,3.056,262,5.58,6.909,0.9401274,0.704,52.44,60.15,33.89,35.71
"2017-11-12 16:50:00",314226,0,0,1.328,79.16,0,0,866.9101,0,11.41,3.059,283,5.568,6.908,0.4776454,0,52.44,60.15,33.89,35.71
"2017-11-12 17:00:00",314227,0,233.2,0.903,82,0,0,866.9926,0,11.45,3.061,372,5.536,6.909,0.3222211,0,52.38,60.15,33.88,35.71
"2017-11-12 17:10:00",314228,0.2,215.2,0.552,84.7,0,0,866.9927,0,-30.08,3.479,220,5.514,6.94,0.4283645,0,52.44,60.15,33.89,35.71
"2017-11-12 17:20:00",314229,0.315,193.4,0.109,86.7,0,0,866.9927,0,-28.94,3.469,190,5.526,6.984,0.3449679,0,52.44,60.15,33.89,35.71
"2017-11-12 17:30:00",314230,0.385,193.4,-0.186,88,0,0,866.9927,0,11.22,3.07,302,5.538,7.004,0.299495,0,52.38,60.15,33.88,35.71
"2017-11-12 17:40:00",314231,0.351,193.5,-0.199,87.7,0,0,866.9927,0,11.06,3.071,276,5.559,6.969,0.5194167,0,52.38,60.15,33.88,35.71
"2017-11-12 17:50:00",314232,0.305,172,-0.533,88.9,0,0,866.9843,0,10.09,3.083,254,5.592,6.966,0.4398374,0,52.44,60.09,33.89,35.7
"2017-11-12 18:00:00",314233,0.461,131.7,-0.494,89.1,0,0,866.7928,0,9.54,3.088,249,5.643,6.937,0.5915463,0,52.44,60.15,33.89,35.71
"2017-11-12 18:10:00",314234,0.364,183.3,-0.41,88.8,0,0,867.0217,0,9.14,3.088,257,5.677,6.914,0.7622082,0,52.38,60.15,33.88,35.71
"2017-11-12 18:20:00",314235,0.276,185.9,-0.085,85.7,0,0,867.0553,0,8.83,3.094,274,5.643,6.916,0.9214831,0,52.38,60.09,33.88,35.7
"2017-11-12 18:30:00",314236,0.054,185.9,-0.266,87,0,0,867.2574,0,8.39,3.096,263,5.627,6.912,0.6484537,0,52.38,60.09,33.88,35.7
"2017-11-12 18:40:00",314237,0.096,185.8,-0.303,86.6,0,0,867.3375,0,7.98,3.105,262,5.605,6.923,0.6484541,0,52.38,60.09,33.88,35.7
"2017-11-12 18:50:00",314238,0.248,185.9,-0.667,89.1,0,0,867.3411,0,8.23,3.101,251,5.557,6.955,0.5612352,0,52.38,60.09,33.88,35.7
"2017-11-12 19:00:00",314239,0.046,185.8,-0.28,86.8,0,0,867.4406,0,7.786,3.104,262,5.529,6.985,0.8835663,0,52.38,60.09,33.88,35.7
"2017-11-12 19:10:00",314240,0.187,184.4,-0.541,87.3,0,0,867.5798,0,8.13,3.104,250,5.526,6.996,0.5877802,0,52.38,60.09,33.88,35.7
"2017-11-12 19:20:00",314241,0.25,185.9,-0.898,90,0,0,867.5271,0,8.43,3.1,256,5.526,6.997,0.5233139,0,52.38,60.09,33.88,35.7
"2017-11-12 19:30:00",314242,0.326,190.7,-0.678,89,0,0,867.5418,0,8.53,3.097,256,5.548,6.997,0.7963474,0,52.38,60.09,33.88,35.7
"2017-11-12 19:40:00",314243,0.378,187.1,-0.272,86.5,0,0,867.5861,0,8.79,3.094,269,5.585,6.997,0.9252798,0,52.38,60.09,33.88,35.7
"2017-11-12 19:50:00",314244,0.199,185.6,0.286,84.5,0,0,867.6029,0,8.62,3.09,271,5.608,6.997,1.240027,0,52.38,60.09,33.88,35.7
"2017-11-12 20:00:00",314245,0.14,259.9,0.93,80.6,0,0,867.877,0,9.35,3.082,286,5.609,6.997,1.425841,0,52.38,60.09,33.88,35.7
"2017-11-12 20:10:00",314246,0.178,263.8,0.529,81.6,0,0,868.0498,0,9.09,3.09,278,5.602,6.993,0.580196,0,52.38,60.09,33.88,35.7
"2017-11-12 20:20:00",314247,0.038,215.5,-0.286,86.8,0,0,868.0961,0,8.89,3.092,278,5.601,6.985,0.09480325,0,52.38,60.03,33.88,35.69
"2017-11-12 20:30:00",314248,0.016,215.6,0.05,85,0,0,868.0836,0,9.35,3.084,280,5.595,6.962,0.6825835,0,52.38,60.03,33.88,35.69
"2017-11-12 20:40:00",314249,0.014,188,0.137,83.9,0,0,868.0941,0,9.06,3.091,272,5.52,6.947,0.7167127,0,52.38,60.03,33.88,35.69
"2017-11-12 20:50:00",314250,0.091,160.3,-0.027,86.5,0,0,868.0961,0,9.04,3.09,278,5.488,6.927,0.7053363,0,52.38,60.03,33.88,35.69
"2017-11-12 21:00:00",314251,0.493,170.4,-0.398,87.7,0,0,868.0983,0,9.28,3.09,273,5.482,6.928,0.4057579,0,52.38,60.03,33.88,35.69
"2017-11-12 21:10:00",314252,0.381,182.6,-0.167,88.1,0,0,868.0961,0,9.62,3.081,300,5.485,6.947,0.8266844,0,52.38,60.03,33.88,35.69
"2017-11-12 21:20:00",314253,0.165,173.2,0.954,83.7,0,0,868.1046,0,9.32,3.083,295,5.513,6.929,1.289324,0,52.32,60.03,33.87,35.69
"2017-11-12 21:30:00",314254,0.262,168.1,0.454,85.7,0,0,868.0961,0,9.85,3.078,311,5.524,6.916,0.5688196,0,52.32,60.03,33.87,35.69
"2017-11-12 21:40:00",314255,0.303,177.9,0.476,86.7,0,0,868.0919,0,10.25,3.074,326,5.509,6.931,0.5688195,0,52.32,60.03,33.87,35.69
"2017-11-12 21:50:00",314256,0.279,178.3,1.149,84.3,0,0,868.0878,0,9.81,3.074,475,5.456,6.91,1.141431,0,52.32,59.97,33.87,35.67
"2017-11-12 22:00:00",314257,0.39,178.4,0.549,86,0,0,868.0182,0,10.85,3.067,459,5.436,6.904,0.2995783,0,52.32,60.03,33.87,35.69
"2017-11-12 22:10:00",314258,0.082,178.4,0.953,85.3,0,0,867.936,0,9.91,3.074,407,5.417,6.879,0.6143251,0,52.32,59.97,33.87,35.67
"2017-11-12 22:20:00",314259,0.123,178,1.569,82.3,0,0,867.9929,0,10.32,3.068,416,5.37,6.874,1.076965,0,52.32,59.97,33.87,35.67
"2017-11-12 22:30:00",314260,0.104,150.9,1.071,83.9,0,0,867.9908,0,11.37,3.059,425,5.353,6.872,0.3943816,0,52.32,59.97,33.87,35.67
"2017-11-12 22:40:00",314261,0.009,67.62,1.267,83.7,0,0,868.0961,0,9.95,3.076,355,5.354,6.869,0.6257015,0,52.32,59.97,33.87,35.67
"2017-11-12 22:50:00",314262,0.267,190,0.737,86,0,0,868.0961,0,10.25,3.075,370,5.363,6.878,0.3981737,0,52.27,59.97,33.85,35.67
"2017-11-12 23:00:00",314263,0.306,183.3,0.138,88.8,0,0,868.0983,0,10.44,3.074,352,5.394,6.9,0.08342686,0,52.27,59.97,33.85,35.67
"2017-11-12 23:10:00",314264,0.329,182.5,0.552,88.4,0,0,868.21,0,9.77,3.079,330,5.431,6.907,0.5271061,0,52.32,59.97,33.87,35.67
"2017-11-12 23:20:00",314265,0.343,182.7,0.305,88.8,0,0,868.1151,0,9.95,3.077,318,5.432,6.91,0.2692412,0,52.32,59.97,33.87,35.67
"2017-11-12 23:30:00",314266,0.132,183,0.937,87.4,0,0,868.2141,0,11.17,3.06,358,5.378,6.91,0.9556168,0,52.32,59.97,33.87,35.67
"2017-11-12 23:40:00",314267,0.127,180.6,0.731,85.7,0,0,868.1257,0,10.34,3.077,346,5.308,6.91,0.4133422,0,52.32,59.97,33.87,35.67
"2017-11-12 23:50:00",314268,0.088,177.3,0.417,88.8,0,0,868.1172,0,9.85,3.079,332,5.273,6.91,0.5308983,0,52.27,59.97,33.85,35.67
